Location: ?????
(44.4284°N, 135.2222°E)
Time: 11:59:15
(UTC+00:00)

NOSS 3-4 (C) - Pass Details

Date: 19 May 2025
Orbit: 781 x 1430 km, 63.4° (Epoch: 03 June)

Event Time Altitude Azimuth Distance (km) Brightness Sun altitude
Exits shadow 18:31:25 11° 237° (WSW) 2,276 4.8 -9.0°
Maximum altitude 18:36:25 53° 314° (NW) 1,015 3.6 -8.3°
Drops below altitude 10° 18:42:11 10° 31° (NNE) 2,591 7.1 -7.5°
Sets 18:44:57 0° 36° (NE) 3,626 8.3 -7.1°
